Overview Statistics Trail Chart Weather Telemetry Raw packets
 

This is the latest recevied weather packets stored in our database for station/object LU3GHF-13. If no packets are shown the sender has not sent any weather packets the latest 10 day(s).

<< 27 28 29 30 31 32 33 >>
Time Temp. Humidity Pressure Rain* Wind** Luminosity Snow
1788195559 21.67° C 91% 1003.9 hPa - - - -
1788194928 21.11° C 92% 1003.9 hPa - - - -
1788194273 21.11° C 93% 1004 hPa - - - -
1788193630 21.11° C 94% 1004.1 hPa - - - -
1788193013 20.56° C 94% 1004.1 hPa - - - -
1788192371 21.11° C 93% 1004.1 hPa - - - -
1788191766 20.56° C 93% 1004.3 hPa - - - -
1788191108 20.56° C 94% 1004.3 hPa - - - -
1788190470 20.56° C 93% 1004.2 hPa - - - -
1788189831 20.56° C 94% 1004.4 hPa - - - -
1788189200 20.56° C 93% 1004.4 hPa - - - -
1788188566 20.56° C 94% 1004.4 hPa - - - -
1788187938 20.56° C 95% 1004.5 hPa - - - -
1788187324 20.56° C 94% 1004.4 hPa - - - -
1788186705 20° C 95% 1004.5 hPa - - - -
1788186093 20° C 96% 1004.4 hPa - - - -
1788185467 20.56° C 95% 1004.3 hPa - - - -
1788184839 20.56° C 95% 1004.3 hPa - - - -
1788184190 20.56° C 95% 1004 hPa - - - -
1788183536 20° C 95% 1004.1 hPa - - - -
1788182923 20° C 95% 1004.2 hPa - - - -
1788182323 20° C 97% 1004.2 hPa - - - -
1788181668 20° C 96% 1004.2 hPa - - - -
1788181050 19.44° C 99% 1004.3 hPa - - - -
1788180427 18.89° C 99% 1004.2 hPa - - - -

* Rain since midnight (hover to see other rain measurements)
** Current wind speed in m/s (hover to see current wind gust speed)